BAW235 EGKK-LGAV

Flight info

Callsign BAW235
Flight time N/A
Altitude 41000
Route ODVIK Y311 DVR UL9 KONAN DCT KOK DCT RITAX DCT BANUX DCT BABEG DCT KUMOM DCT NIPEL DCT ABISO DCT NEMEK DCT ELTIB DCT PINDO DCT PIKOS UL607 XORKI
Aircraft B772/H-SDE2E3FGHIJ5LORVWXY/LB1D1

Departure

Time 2026-05-07 10:30
Airport London Gatwick Airport (EGKK)

Arrival

Time N/A
Airport Athens Eleftherios Venizelos International Airport (LGAV)
Time Latitude Longitude Altitude Speed Heading
2026-05-07 10:04 51.15542 -0.17184 219 ft 0 kts 135°
2026-05-07 10:19 51.15547 -0.17193 220 ft 2 kts 140°
2026-05-07 10:19 51.15561 -0.17208 222 ft 2 kts 150°
2026-05-07 10:20 51.15575 -0.17219 221 ft 2 kts 167°
2026-05-07 10:20 51.15591 -0.17221 221 ft 2 kts 190°
2026-05-07 10:20 51.15607 -0.17213 220 ft 2 kts 215°
2026-05-07 10:20 51.15619 -0.17196 222 ft 2 kts 236°
2026-05-07 10:21 51.15624 -0.17183 222 ft 1 kts 249°
2026-05-07 10:21 51.15624 -0.17181 222 ft 0 kts 251°
2026-05-07 10:22 51.15617 -0.17223 223 ft 12 kts 256°
2026-05-07 10:23 51.15588 -0.17387 221 ft 18 kts 241°
2026-05-07 10:23 51.15531 -0.17576 219 ft 22 kts 257°
2026-05-07 10:23 51.15496 -0.17837 211 ft 26 kts 258°
2026-05-07 10:23 51.15456 -0.18127 217 ft 23 kts 257°
2026-05-07 10:24 51.15383 -0.18272 217 ft 18 kts 181°
2026-05-07 10:24 51.15267 -0.18237 215 ft 19 kts 167°
2026-05-07 10:24 51.15182 -0.18322 219 ft 17 kts 260°
2026-05-07 10:24 51.15159 -0.18537 218 ft 22 kts 257°
2026-05-07 10:25 51.15123 -0.18794 214 ft 24 kts 258°
2026-05-07 10:25 51.15089 -0.19059 217 ft 24 kts 258°
2026-05-07 10:25 51.15050 -0.19321 215 ft 24 kts 256°
2026-05-07 10:25 51.15012 -0.19584 220 ft 24 kts 257°
2026-05-07 10:26 51.14976 -0.19847 216 ft 24 kts 258°
2026-05-07 10:26 51.14940 -0.20110 219 ft 24 kts 258°
2026-05-07 10:26 51.14908 -0.20364 215 ft 24 kts 258°
2026-05-07 10:26 51.14871 -0.20627 218 ft 24 kts 257°
2026-05-07 10:27 51.14846 -0.20800 209 ft 24 kts 257°
2026-05-07 10:27 51.14792 -0.21148 221 ft 24 kts 249°
2026-05-07 10:27 51.14765 -0.21321 214 ft 21 kts 256°
2026-05-07 10:27 51.14622 -0.21334 218 ft 18 kts 164°
2026-05-07 10:28 51.14546 -0.21272 216 ft 18 kts 137°
2026-05-07 10:28 51.14527 -0.21122 220 ft 0 kts 77°
2026-05-07 10:30 51.14575 -0.20773 215 ft 78 kts 78°
2026-05-07 10:30 51.14759 -0.19322 319 ft 173 kts 79°
2026-05-07 10:30 51.15028 -0.17234 1198 ft 197 kts 79°
2026-05-07 10:30 51.15316 -0.15124 2088 ft 215 kts 80°
2026-05-07 10:31 51.15602 -0.12524 2954 ft 238 kts 85°
2026-05-07 10:31 51.15879 -0.09944 4365 ft 255 kts 77°
2026-05-07 10:31 51.16319 -0.07158 4924 ft 263 kts 75°
2026-05-07 10:31 51.16781 -0.04256 4997 ft 276 kts 76°
2026-05-07 10:32 51.17035 -0.01272 5004 ft 273 kts 92°
2026-05-07 10:32 51.16886 0.01718 4926 ft 269 kts 96°
2026-05-07 10:32 51.16775 0.04666 4901 ft 266 kts 94°
2026-05-07 10:32 51.16704 0.07616 4900 ft 267 kts 93°
2026-05-07 10:33 51.16644 0.10570 4882 ft 268 kts 92°
2026-05-07 10:33 51.16587 0.13522 4868 ft 268 kts 92°
2026-05-07 10:33 51.16543 0.16488 4856 ft 268 kts 91°
2026-05-07 10:33 51.16548 0.19454 4849 ft 268 kts 91°
2026-05-07 10:34 51.16562 0.22411 4839 ft 268 kts 90°
2026-05-07 10:34 51.16572 0.25379 4826 ft 268 kts 90°
2026-05-07 10:34 51.16578 0.28357 4807 ft 269 kts 91°
2026-05-07 10:34 51.16584 0.31330 4808 ft 268 kts 91°
2026-05-07 10:35 51.16589 0.34300 4807 ft 268 kts 91°
2026-05-07 10:35 51.16593 0.37302 4813 ft 268 kts 91°
2026-05-07 10:35 51.16597 0.40256 4946 ft 266 kts 91°
2026-05-07 10:35 51.16598 0.43209 5262 ft 268 kts 91°
2026-05-07 10:36 51.16599 0.46204 5578 ft 272 kts 91°
2026-05-07 10:36 51.16600 0.49210 5898 ft 272 kts 91°
2026-05-07 10:36 51.16600 0.52209 6230 ft 270 kts 91°
2026-05-07 10:36 51.16599 0.55184 6595 ft 268 kts 91°
2026-05-07 10:37 51.16597 0.58173 6978 ft 273 kts 91°
2026-05-07 10:37 51.16595 0.61225 7381 ft 278 kts 91°
2026-05-07 10:37 51.16592 0.64321 7787 ft 280 kts 90°
2026-05-07 10:37 51.16588 0.67469 8317 ft 289 kts 91°
2026-05-07 10:38 51.16583 0.70679 8861 ft 293 kts 90°
2026-05-07 10:38 51.16577 0.73960 9430 ft 298 kts 90°
2026-05-07 10:38 51.16570 0.77257 9975 ft 300 kts 90°
2026-05-07 10:38 51.16563 0.80589 10473 ft 302 kts 90°
2026-05-07 10:39 51.16554 0.83935 10979 ft 304 kts 90°
2026-05-07 10:39 51.16545 0.87255 11489 ft 306 kts 90°
2026-05-07 10:39 51.16534 0.90772 12071 ft 336 kts 90°
2026-05-07 10:39 51.16520 0.94660 12697 ft 354 kts 90°
2026-05-07 10:40 51.16505 0.98604 13230 ft 358 kts 90°
2026-05-07 10:40 51.16489 1.02593 13772 ft 362 kts 90°
2026-05-07 10:40 51.16471 1.06621 14269 ft 368 kts 90°
2026-05-07 10:40 51.16451 1.10704 14767 ft 370 kts 90°
2026-05-07 10:41 51.16430 1.14854 15268 ft 377 kts 90°
2026-05-07 10:41 51.16407 1.19036 15769 ft 380 kts 90°
2026-05-07 10:41 51.16382 1.23263 16280 ft 382 kts 91°
2026-05-07 10:41 51.16357 1.27507 16811 ft 385 kts 91°
2026-05-07 10:42 51.16329 1.31784 17345 ft 388 kts 91°
2026-05-07 10:42 51.16297 1.36094 17881 ft 391 kts 91°
2026-05-07 10:42 51.16169 1.40437 18420 ft 394 kts 94°
2026-05-07 10:42 51.15955 1.44801 18900 ft 397 kts 95°
2026-05-07 10:43 51.15716 1.49198 19389 ft 400 kts 95°
2026-05-07 10:43 51.15477 1.53616 19883 ft 402 kts 95°
2026-05-07 10:43 51.15242 1.58065 20388 ft 404 kts 95°
2026-05-07 10:43 51.15014 1.62535 20898 ft 406 kts 95°
2026-05-07 10:44 51.14787 1.67033 21412 ft 408 kts 95°
2026-05-07 10:44 51.14561 1.71542 21941 ft 410 kts 95°
2026-05-07 10:44 51.14332 1.76084 22484 ft 414 kts 95°
2026-05-07 10:44 51.14098 1.80699 23048 ft 422 kts 95°
2026-05-07 10:45 51.13859 1.85385 23616 ft 428 kts 95°
2026-05-07 10:45 51.13615 1.90123 24103 ft 433 kts 95°
2026-05-07 10:45 51.13366 1.94935 24574 ft 438 kts 95°
2026-05-07 10:45 51.13112 1.99779 25073 ft 441 kts 95°
2026-05-07 10:46 51.12854 2.04660 25566 ft 444 kts 95°
2026-05-07 10:46 51.12593 2.09553 26063 ft 446 kts 95°
2026-05-07 10:46 51.12330 2.14471 26570 ft 447 kts 95°
2026-05-07 10:46 51.12064 2.19406 27086 ft 448 kts 95°
2026-05-07 10:47 51.11796 2.24344 27611 ft 448 kts 95°
2026-05-07 10:47 51.11527 2.29267 28134 ft 448 kts 95°
2026-05-07 10:47 51.11252 2.34265 28687 ft 447 kts 95°
2026-05-07 10:47 51.10979 2.39176 29227 ft 446 kts 95°
2026-05-07 10:48 51.10704 2.44089 29793 ft 445 kts 95°
2026-05-07 10:48 51.10430 2.48962 30325 ft 443 kts 96°
2026-05-07 10:48 51.10156 2.53799 30807 ft 441 kts 96°
2026-05-07 10:48 51.09879 2.58644 31300 ft 440 kts 96°
2026-05-07 10:49 51.09590 2.63473 31800 ft 437 kts 98°
2026-05-07 10:49 51.08911 2.68163 32302 ft 434 kts 111°
2026-05-07 10:49 51.07619 2.72454 32827 ft 427 kts 122°
2026-05-07 10:49 51.06154 2.76536 33364 ft 424 kts 120°
2026-05-07 10:50 51.04790 2.80683 33907 ft 422 kts 118°
2026-05-07 10:50 51.03488 2.84846 34394 ft 420 kts 117°
2026-05-07 10:50 51.02218 2.89003 34842 ft 417 kts 117°
2026-05-07 10:50 51.00966 2.93132 35319 ft 413 kts 117°
2026-05-07 10:51 50.99723 2.97228 35783 ft 409 kts 117°
2026-05-07 10:51 50.98491 3.01280 36260 ft 405 kts 117°
2026-05-07 10:51 50.97270 3.05274 36745 ft 400 kts 117°
2026-05-07 10:51 50.96061 3.09218 37224 ft 394 kts 117°
2026-05-07 10:52 50.94871 3.13092 37732 ft 388 kts 117°
2026-05-07 10:52 50.93696 3.16903 38239 ft 380 kts 117°
2026-05-07 10:52 50.92547 3.20626 38728 ft 372 kts 117°
2026-05-07 10:52 50.91420 3.24270 39031 ft 366 kts 117°
2026-05-07 10:53 50.89155 3.31570 38864 ft 381 kts 117°
2026-05-07 10:53 50.86782 3.39194 38842 ft 391 kts 117°
2026-05-07 10:54 50.84339 3.47025 38812 ft 402 kts 117°
2026-05-07 10:54 50.81811 3.55101 38627 ft 419 kts 117°
2026-05-07 10:55 50.80500 3.59281 38435 ft 429 kts 117°
2026-05-07 10:55 50.79157 3.63555 38248 ft 439 kts 117°
2026-05-07 10:55 50.76391 3.72333 38108 ft 453 kts 117°
2026-05-07 10:56 50.73542 3.81345 38083 ft 463 kts 117°
2026-05-07 10:56 50.70630 3.90521 38065 ft 472 kts 117°
2026-05-07 10:57 50.67662 3.99838 38069 ft 479 kts 117°
2026-05-07 10:57 50.64649 4.09263 38089 ft 484 kts 117°
2026-05-07 10:58 50.61595 4.18776 38060 ft 489 kts 117°
2026-05-07 10:58 50.58508 4.28355 38072 ft 491 kts 118°
2026-05-07 10:59 50.55406 4.37945 38084 ft 492 kts 118°
2026-05-07 10:59 50.52293 4.47533 38086 ft 493 kts 118°
2026-05-07 11:00 50.49166 4.57128 38058 ft 493 kts 118°
2026-05-07 11:00 50.46033 4.66699 38067 ft 492 kts 118°
2026-05-07 11:01 50.42898 4.76241 38059 ft 492 kts 118°
2026-05-07 11:01 50.39755 4.85773 38063 ft 491 kts 118°
2026-05-07 11:02 50.36612 4.95270 38055 ft 491 kts 118°
2026-05-07 11:02 50.33463 5.04745 38054 ft 490 kts 118°
2026-05-07 11:03 50.30325 5.14156 38302 ft 487 kts 118°
2026-05-07 11:03 50.28746 5.18878 38506 ft 485 kts 118°
2026-05-07 11:03 50.27196 5.23502 38690 ft 484 kts 118°
2026-05-07 11:04 50.25636 5.28150 38844 ft 482 kts 118°
2026-05-07 11:04 50.24077 5.32786 38990 ft 481 kts 119°
2026-05-07 11:04 50.22522 5.37400 39131 ft 480 kts 119°
2026-05-07 11:04 50.20971 5.41997 39283 ft 478 kts 119°
2026-05-07 11:05 50.19421 5.46582 39432 ft 477 kts 119°
2026-05-07 11:05 50.17874 5.51149 39585 ft 475 kts 119°
2026-05-07 11:05 50.16327 5.55708 39732 ft 474 kts 119°
2026-05-07 11:05 50.14787 5.60238 39884 ft 473 kts 119°
2026-05-07 11:06 50.13247 5.64759 40025 ft 471 kts 119°
2026-05-07 11:06 50.11711 5.69264 40190 ft 470 kts 119°
2026-05-07 11:06 50.10176 5.73761 40348 ft 469 kts 119°
2026-05-07 11:06 50.08646 5.78232 40509 ft 467 kts 120°
2026-05-07 11:07 50.07127 5.82689 40658 ft 466 kts 119°
2026-05-07 11:07 50.05653 5.87183 40817 ft 465 kts 118°
2026-05-07 11:07 50.04230 5.91622 40923 ft 464 kts 118°
2026-05-07 11:07 50.03261 5.94667 40955 ft 465 kts 118°
2026-05-07 11:08 50.00381 6.03700 41041 ft 468 kts 118°
2026-05-07 11:08 49.97455 6.12784 41048 ft 472 kts 118°
2026-05-07 11:09 49.94482 6.21944 41028 ft 477 kts 118°
2026-05-07 11:09 49.91477 6.31157 41036 ft 480 kts 118°
2026-05-07 11:10 49.88447 6.40414 41016 ft 483 kts 118°
2026-05-07 11:10 49.85390 6.49721 41030 ft 485 kts 118°
2026-05-07 11:11 49.82316 6.59046 41005 ft 487 kts 118°
2026-05-07 11:11 49.79221 6.68399 41007 ft 489 kts 118°
2026-05-07 11:12 49.76110 6.77768 41003 ft 491 kts 118°
2026-05-07 11:12 49.72979 6.87158 41011 ft 491 kts 119°
2026-05-07 11:13 49.69839 6.96544 41014 ft 492 kts 119°
2026-05-07 11:13 49.66684 7.05941 41017 ft 493 kts 119°
2026-05-07 11:14 49.63534 7.15283 41020 ft 494 kts 119°
2026-05-07 11:14 49.60335 7.24739 41015 ft 495 kts 119°
2026-05-07 11:15 49.57164 7.34076 41024 ft 495 kts 119°
2026-05-07 11:15 49.53941 7.43535 41023 ft 496 kts 119°
2026-05-07 11:16 49.50752 7.52858 41028 ft 496 kts 119°
2026-05-07 11:16 49.47511 7.62295 41014 ft 496 kts 120°
2026-05-07 11:17 49.44308 7.71591 41027 ft 495 kts 120°
2026-05-07 11:17 49.41077 7.80934 41026 ft 495 kts 120°
2026-05-07 11:18 49.37839 7.90260 41027 ft 495 kts 120°
2026-05-07 11:18 49.34597 7.99567 41025 ft 495 kts 120°
2026-05-07 11:19 49.31345 8.08869 41018 ft 495 kts 120°
2026-05-07 11:19 49.28090 8.18145 41017 ft 494 kts 120°
2026-05-07 11:20 49.24828 8.27406 41027 ft 494 kts 120°
2026-05-07 11:20 49.21548 8.36687 41009 ft 495 kts 120°
2026-05-07 11:21 49.18281 8.45900 41022 ft 494 kts 120°
2026-05-07 11:21 49.14996 8.55130 41022 ft 494 kts 120°
2026-05-07 11:22 49.11705 8.64351 41024 ft 494 kts 121°
2026-05-07 11:22 49.08172 8.73326 41014 ft 493 kts 125°
2026-05-07 11:23 49.04347 8.82008 41021 ft 493 kts 126°
2026-05-07 11:23 49.00516 8.90682 41017 ft 493 kts 126°
2026-05-07 11:24 48.96720 8.99386 41018 ft 494 kts 126°
2026-05-07 11:24 48.92930 9.08102 41012 ft 494 kts 126°
2026-05-07 11:25 48.89136 9.16801 41020 ft 494 kts 126°
2026-05-07 11:25 48.85329 9.25492 41012 ft 494 kts 126°
2026-05-07 11:26 48.81510 9.34180 41020 ft 494 kts 126°
2026-05-07 11:26 48.77689 9.42846 41013 ft 494 kts 126°
2026-05-07 11:27 48.73860 9.51502 41014 ft 495 kts 126°
2026-05-07 11:27 48.70020 9.60159 41019 ft 495 kts 126°
2026-05-07 11:28 48.66197 9.68836 41001 ft 496 kts 124°
2026-05-07 11:28 48.62635 9.77788 41019 ft 497 kts 122°
2026-05-07 11:29 48.59192 9.86749 41023 ft 497 kts 122°
2026-05-07 11:29 48.55687 9.95752 41006 ft 497 kts 123°
2026-05-07 11:30 48.52149 10.04708 41011 ft 497 kts 123°
2026-05-07 11:30 48.48592 10.13648 41026 ft 497 kts 123°
2026-05-07 11:31 48.45025 10.22584 41024 ft 498 kts 123°
2026-05-07 11:31 48.41455 10.31506 41015 ft 497 kts 123°
2026-05-07 11:32 48.36095 10.44847 41015 ft 496 kts 124°
2026-05-07 11:33 48.32520 10.53710 41017 ft 495 kts 124°
2026-05-07 11:33 48.28940 10.62555 41021 ft 495 kts 124°
2026-05-07 11:34 48.25355 10.71380 41032 ft 496 kts 124°
2026-05-07 11:34 48.21801 10.80104 41012 ft 496 kts 124°
2026-05-07 11:35 48.18198 10.88918 41023 ft 496 kts 124°
2026-05-07 11:35 48.14592 10.97712 41023 ft 496 kts 124°
2026-05-07 11:36 48.10978 11.06496 41011 ft 496 kts 124°
2026-05-07 11:36 48.07431 11.15089 41017 ft 496 kts 124°
2026-05-07 11:37 48.03739 11.24003 41006 ft 497 kts 124°
2026-05-07 11:37 48.00105 11.32751 41030 ft 497 kts 124°
2026-05-07 11:38 47.96464 11.41486 41024 ft 497 kts 124°
2026-05-07 11:38 47.92792 11.50267 41003 ft 497 kts 124°
2026-05-07 11:39 47.89147 11.58959 41012 ft 497 kts 125°
2026-05-07 11:39 47.85482 11.67668 41007 ft 496 kts 125°
2026-05-07 11:40 47.81812 11.76359 40998 ft 496 kts 125°
2026-05-07 11:40 47.78140 11.85029 41004 ft 496 kts 125°
2026-05-07 11:41 47.74473 11.93660 40999 ft 496 kts 126°
2026-05-07 11:41 47.70787 12.02310 41010 ft 495 kts 126°
2026-05-07 11:42 47.67100 12.10932 41013 ft 495 kts 126°
2026-05-07 11:42 47.63404 12.19547 41004 ft 496 kts 126°
2026-05-07 11:43 47.59699 12.28163 41014 ft 496 kts 126°
2026-05-07 11:43 47.55990 12.36753 40990 ft 495 kts 127°